Vorticity
9 15 17 13 7 4 5 8 10 11 9 9 7 5 7 11 13 14 14 18 20 17 13 11 12 14 18 21 22 21 21 21 22 21 19 15 15 17 21 22 18 19 19 19 19 21 23 19 16 20 23 18 12 12 13 16 17 11 11 9 9 14 10 8 8 6 7 5 3 3 1 2 2 2 6 3 1 3 3 3 2 4 6 7 7 6 6 7
12 17 15 8 4 5 7 9 11 10 8 8 5 6 9 12 13 14 16 18 18 14 12 12 14 17 19 22 24 23 21 21 21 19 18 17 17 19 22 25 23 21 22 20 18 21 24 21 18 18 20 18 12 13 13 16 16 12 12 9 11 15 9 6 7 5 7 6 3 3 2 1 2 3 5 3 6 7 2 1 1 4 9 9 7 5 5 6
15 16 10 4 4 6 8 11 11 8 8 6 5 8 10 11 13 15 17 16 15 14 13 14 17 19 20 20 19 19 18 18 20 20 19 19 19 20 21 23 25 24 23 21 18 20 24 21 19 18 18 16 14 14 14 15 16 13 11 10 13 13 9 7 5 5 7 5 2 2 2 1 -0 1 3 2 6 6 1 1 1 4 10 9 5 2 4 6
15 12 6 3 5 7 9 11 9 8 7 4 6 9 8 11 15 17 16 13 13 13 13 16 20 20 17 16 16 17 17 17 18 22 22 21 20 18 16 18 22 24 24 23 21 22 22 22 21 18 16 15 15 17 18 17 15 14 11 13 15 9 9 10 3 5 7 3 3 4 5 9 5 -1 1 3 1 -0 1 2 1 2 7 9 7 1 4 7
12 8 5 4 6 8 10 11 8 8 5 4 8 7 9 12 14 17 15 12 13 14 15 18 19 17 13 14 16 14 16 17 17 21 23 24 24 20 17 21 24 24 27 26 24 23 19 20 21 18 15 14 18 20 20 20 16 14 13 12 12 8 9 9 3 7 9 2 2 3 3 9 8 2 3 2 -0 1 1 2 1 -0 4 8 7 2 4 6
10 6 5 5 7 9 11 10 7 7 4 6 8 6 10 11 12 16 15 13 13 14 17 18 15 14 12 11 12 13 17 16 14 21 24 26 28 22 20 24 25 22 23 25 25 24 17 17 21 20 17 15 22 27 23 21 17 14 15 9 8 10 9 7 3 5 8 4 3 2 -1 2 3 1 4 2 2 4 0 1 4 0 0 5 5 3 3 3
8 5 5 6 8 10 11 9 6 6 4 6 7 7 11 10 13 17 16 14 13 15 17 15 13 13 10 8 12 15 16 18 17 24 24 26 29 23 23 24 20 18 19 21 24 23 20 18 18 19 23 23 26 30 24 20 17 12 15 10 6 10 9 6 5 6 6 5 5 2 -2 2 5 3 3 3 2 3 4 5 7 5 1 2 4 3 4 5
7 5 6 7 9 10 11 8 5 6 5 7 7 7 10 12 16 18 17 15 13 17 16 13 14 14 9 6 11 10 17 31 27 26 23 21 26 22 23 23 19 19 16 18 21 21 20 20 20 20 28 30 26 28 23 17 14 10 14 12 4 8 7 5 7 7 5 3 3 1 -2 -3 -1 3 3 4 4 3 7 10 9 8 5 3 5 6 7 7
6 4 7 8 10 11 11 7 5 6 5 7 7 7 11 14 17 17 18 15 12 17 16 14 14 13 9 6 10 8 20 36 25 22 22 20 25 20 21 26 27 25 19 17 19 21 19 19 24 22 24 28 23 26 22 13 9 8 14 10 5 9 6 6 11 8 4 3 2 2 3 1 -2 3 4 3 7 7 6 10 11 9 6 2 1 4 5 3
6 4 8 9 11 11 10 6 4 7 6 7 7 8 13 15 16 18 18 14 13 17 16 16 15 10 9 10 13 9 14 26 20 15 16 19 26 21 17 21 23 25 27 24 19 22 23 19 22 19 20 23 20 22 17 10 8 10 15 8 6 10 5 6 10 7 5 2 2 7 7 5 3 2 5 7 8 11 9 9 11 8 3 1 0 4 5 1
5 5 8 11 11 11 10 5 4 7 7 6 7 10 13 14 17 16 14 12 13 16 14 15 14 8 9 12 12 7 6 20 26 19 14 19 22 15 10 18 28 27 25 26 21 22 23 20 19 16 20 22 18 17 11 10 11 11 14 8 5 8 4 6 9 5 8 6 -1 6 10 7 4 -0 5 15 14 11 8 5 7 7 4 5 7 8 7 6
5 5 9 12 11 10 9 5 4 8 7 5 8 12 13 14 17 13 10 11 12 14 13 12 12 8 8 9 7 6 5 11 19 16 11 10 11 12 12 23 36 29 21 20 18 21 21 19 17 12 18 21 16 13 11 14 13 9 11 8 6 7 3 6 11 -2 2 16 3 2 15 9 2 2 1 7 12 7 1 4 8 8 6 6 9 9 7 8
6 6 10 12 11 10 8 4 5 9 8 5 9 15 15 14 16 12 8 10 10 12 13 8 8 7 8 8 6 7 7 7 7 9 12 8 9 15 14 19 25 22 24 18 12 17 16 18 18 10 16 17 10 12 15 14 10 8 10 10 5 7 5 3 12 -2 -10 12 5 -5 11 14 11 12 4 -3 2 7 2 5 8 4 3 1 4 9 8 8
6 7 11 13 11 10 7 4 5 9 9 6 9 16 15 12 15 14 8 9 9 12 14 9 7 8 9 10 10 11 11 11 6 7 14 13 12 13 9 17 17 11 18 16 11 16 14 16 14 10 16 12 4 11 16 13 11 7 7 11 4 4 7 3 11 1 -10 8 4 -4 5 9 11 6 5 2 -1 8 6 3 6 1 -1 -1 4 10 8 8
7 8 11 13 11 9 7 4 4 8 9 8 9 14 14 9 13 15 10 10 10 10 12 11 10 9 9 9 9 11 11 13 10 7 11 11 10 11 7 14 14 10 18 10 3 14 14 8 9 11 8 3 8 18 18 16 14 8 8 9 1 2 7 9 13 -3 -9 10 5 7 17 1 -6 -3 3 9 1 5 6 2 7 4 -2 -0 6 10 8 7
8 9 12 13 11 9 6 4 4 5 6 10 9 10 13 8 10 15 11 10 10 10 9 10 12 10 11 11 8 9 9 12 13 8 8 8 8 8 9 12 10 13 20 6 3 22 16 2 11 11 2 8 16 17 15 15 14 8 5 8 5 2 5 8 11 -2 -9 5 -10 -8 22 11 -3 4 3 5 5 5 7 7 9 5 -0 2 7 9 7 7
9 10 11 13 12 9 6 3 3 3 2 9 10 7 11 10 9 12 11 10 9 10 8 7 12 11 10 12 12 10 8 12 15 12 6 5 9 8 9 13 12 16 16 8 14 22 5 -1 9 6 15 18 -0 8 21 14 19 13 -4 6 9 -1 9 10 6 7 1 9 5 -17 1 20 14 11 3 3 9 6 8 9 9 6 2 4 8 7 7 6
10 11 11 13 12 9 7 3 3 3 1 8 11 4 5 10 11 10 9 9 8 8 8 6 9 10 9 8 9 7 7 11 13 15 10 7 12 7 9 14 15 19 11 3 9 7 0 14 14 8 32 7 -37 12 45 13 13 17 -1 2 5 4 22 17 -1 4 -6 -2 23 4 -10 11 17 12 5 3 2 -1 6 9 8 8 4 6 6 5 5 5
11 12 12 12 12 9 7 4 2 4 3 7 11 4 -1 4 12 12 9 8 7 6 6 7 7 8 9 6 5 4 6 10 10 14 11 9 12 5 8 14 16 18 2 -8 13 24 17 24 20 10 29 -0 -36 21 46 10 7 13 8 -10 -14 22 41 21 1 1 -10 -16 12 23 10 3 1 2 -1 -4 -5 -7 1 6 9 11 8 7 5 5 6 5
11 13 12 11 12 10 7 5 1 3 5 7 11 8 -0 -0 8 11 11 9 7 6 4 6 6 4 6 4 4 3 3 8 9 13 9 7 11 8 10 13 12 10 -8 -14 22 42 17 13 21 8 13 6 -8 22 23 7 10 9 14 -18 -35 21 39 11 5 4 -0 -7 -4 16 29 18 3 2 -2 -6 -7 -9 -4 2 8 11 8 7 5 5 5 5
12 14 13 11 11 10 7 5 2 2 5 8 11 11 5 3 7 9 12 10 7 8 4 4 7 5 5 3 3 3 1 4 5 8 8 5 8 10 12 15 11 4 -9 -10 19 37 15 11 24 10 11 15 2 14 14 10 14 4 11 -4 -19 18 24 5 7 6 14 15 -2 -2 14 19 11 9 7 3 0 -2 -1 -0 5 10 7 6 5 5 6 7
12 15 15 11 10 10 7 5 3 2 5 8 9 12 9 5 8 7 10 12 7 8 7 5 8 7 7 6 5 5 2 2 3 7 9 5 8 9 10 13 9 3 -0 4 19 28 20 16 18 8 13 20 6 5 8 13 20 9 4 -2 -3 11 10 7 2 -6 14 29 13 -3 -1 5 5 8 12 12 11 7 2 3 9 11 7 7 7 7 9 9
11 15 16 12 10 10 7 5 4 1 4 8 6 10 10 6 9 6 7 13 8 6 8 6 7 8 11 10 10 12 9 6 5 7 7 6 8 7 8 10 5 5 8 13 17 17 17 12 10 17 16 13 13 8 2 7 7 9 20 16 13 15 8 8 -5 -22 -5 14 12 5 4 8 11 15 14 10 11 8 5 8 11 10 7 8 9 9 11 10
10 15 18 13 10 10 7 5 5 1 3 8 6 7 11 9 10 9 7 13 10 4 3 4 6 10 15 17 17 18 15 12 10 9 8 8 9 6 8 11 10 14 13 12 14 12 17 8 -5 15 24 8 9 9 7 9 -19 -29 11 33 29 24 13 10 3 -12 -13 -1 10 4 -2 8 18 19 16 12 10 7 9 13 12 11 8 8 9 9 9 9
10 14 18 15 11 10 8 5 5 3 1 7 7 4 9 9 8 12 9 11 15 9 3 6 11 11 12 14 16 17 16 17 18 15 11 10 11 10 8 10 11 15 11 7 13 12 15 14 -4 5 28 23 12 5 9 17 -12 -43 -17 20 23 15 12 11 10 2 -9 -6 4 -6 -11 6 14 10 10 10 7 7 11 15 15 13 10 9 10 8 8 10
10 13 18 16 12 10 9 5 4 4 1 5 6 2 7 8 7 13 10 9 16 14 7 9 12 9 7 9 10 12 13 13 16 17 17 15 15 15 12 10 10 11 10 9 12 11 7 12 11 7 19 26 18 10 8 13 6 -13 -8 14 17 10 11 10 8 6 -1 -2 0 -6 -1 11 9 6 8 4 4 8 12 13 13 11 9 9 8 8 9 11
9 12 17 18 14 11 9 7 5 5 1 3 5 2 7 10 8 10 11 14 16 12 11 12 10 6 4 6 4 6 9 10 12 12 14 17 15 14 13 12 12 9 9 9 6 8 7 5 9 8 8 14 13 12 11 8 3 0 9 16 7 2 10 14 14 10 7 10 9 4 7 9 4 5 7 3 6 10 10 10 10 9 9 8 8 9 10 12
9 11 16 19 17 12 10 7 5 5 1 2 4 2 8 12 7 6 9 16 14 7 9 10 8 7 4 4 4 6 8 5 4 1 2 11 10 9 10 8 10 9 6 10 7 5 7 6 7 8 5 6 6 5 5 7 5 9 19 14 -9 -13 7 19 19 18 19 18 14 10 9 10 10 10 9 7 8 9 8 8 8 8 9 9 10 10 9 13
9 10 15 20 20 14 10 7 5 6 2 2 3 3 11 13 7 7 7 13 16 11 11 7 4 8 8 9 10 11 9 5 10 15 14 16 17 19 20 11 8 7 1 2 4 2 4 4 2 2 2 2 5 7 8 9 11 13 14 4 -10 -4 20 31 23 21 25 19 15 17 18 19 22 23 21 13 8 8 7 7 8 9 11 13 12 9 8 11
9 11 13 18 22 17 10 7 6 6 3 3 2 2 11 12 8 10 10 13 16 13 13 8 5 10 10 10 13 12 12 14 17 17 13 11 15 23 27 21 17 17 13 11 12 13 14 12 10 12 15 15 14 16 20 19 15 16 18 17 14 17 33 42 33 26 25 18 17 20 17 14 18 23 22 14 10 9 8 9 10 10 12 14 12 9 10 11
9 11 12 16 23 19 11 8 6 6 4 3 3 2 10 13 10 10 10 12 13 9 10 10 10 13 11 11 14 10 10 11 8 5 5 5 5 10 13 13 14 16 20 26 26 23 22 22 23 23 23 26 22 17 27 33 26 28 38 34 21 17 24 32 29 23 18 12 11 13 11 8 8 13 14 11 11 12 13 14 11 10 12 14 13 13 15 17
9 10 12 16 21 20 14 9 6 6 5 4 3 3 7 10 10 10 9 11 11 9 8 10 11 8 3 4 9 9 9 8 6 4 6 6 4 5 8 6 5 5 6 14 17 11 10 14 18 19 16 16 14 10 17 23 16 19 30 23 12 14 24 27 20 14 12 10 9 9 10 8 7 12 14 12 12 11 10 10 9 12 16 16 16 17 19 18
9 10 11 14 19 21 17 10 7 7 6 5 4 4 5 6 8 11 9 9 10 9 7 6 9 6 -0 -1 0 4 9 6 4 2 2 6 5 4 7 5 4 6 5 7 9 7 6 8 11 11 7 6 7 7 9 11 7 11 18 15 9 9 13 17 13 8 9 10 9 8 9 10 11 15 16 13 12 10 10 11 13 14 15 14 13 13 13 11
9 10 11 13 17 22 21 13 8 8 6 6 5 5 5 4 6 12 11 7 8 9 7 4 6 6 2 2 2 3 6 5 3 3 3 7 7 4 4 7 7 6 5 6 7 9 11 11 10 6 2 5 8 7 9 12 13 15 15 12 10 7 6 8 8 7 9 8 8 8 8 9 10 10 10 9 9 10 12 13 12 10 10 14 13 11 9 8
8 9 10 12 15 20 24 17 8 7 7 6 5 5 6 4 6 14 14 7 7 8 6 4 3 4 1 1 6 7 4 5 6 6 8 9 8 7 7 10 8 2 2 7 6 7 12 13 9 3 0 5 9 7 8 13 17 16 11 7 5 6 6 5 6 7 8 6 6 5 6 8 10 11 11 11 10 9 7 6 7 8 12 15 15 12 10 9
8 9 9 11 14 18 24 21 9 7 8 6 6 6 6 4 5 13 15 7 6 9 7 5 4 5 3 -3 2 11 7 3 7 7 9 12 10 6 8 11 7 1 3 8 9 8 12 14 10 4 3 8 12 10 4 7 12 10 8 8 6 4 4 6 9 8 6 7 7 6 7 7 8 10 11 12 12 9 6 6 7 8 9 10 11 11 10 9
8 8 7 9 14 16 22 23 10 7 10 7 6 7 6 5 3 9 16 11 6 8 8 6 5 6 6 -2 -2 13 13 1 4 8 6 9 8 5 8 9 5 6 7 8 9 6 9 14 10 6 7 6 9 11 7 7 8 4 4 7 5 3 3 4 6 5 5 8 8 7 8 8 7 9 10 10 11 11 10 10 8 6 7 8 8 8 8 9
8 8 6 7 12 15 19 23 12 6 11 9 5 7 7 7 4 5 13 15 9 6 5 5 6 6 7 3 -0 13 18 2 -1 8 6 7 10 7 8 10 7 7 7 8 9 5 10 16 10 6 6 1 3 8 10 11 10 5 5 5 3 4 4 2 5 8 9 9 9 9 9 9 8 7 8 6 6 9 11 8 6 8 9 9 8 7 7 8
9 8 7 5 9 13 17 21 14 8 12 12 7 7 8 7 7 5 9 15 11 7 5 3 6 7 6 7 4 11 21 6 -7 4 8 8 13 7 4 12 15 10 6 7 8 7 14 17 8 4 4 2 6 7 5 7 8 7 7 5 5 7 7 6 6 8 9 6 7 9 6 6 7 5 6 6 3 3 7 6 7 10 10 9 9 7 6 7
9 9 9 6 5 9 15 19 16 10 13 15 8 7 8 6 7 7 8 12 11 10 11 7 8 8 4 8 7 7 19 10 -7 -0 7 7 14 9 2 10 16 12 6 5 5 8 13 11 5 4 3 3 5 4 2 3 3 4 5 3 5 8 9 8 4 3 5 4 6 11 10 9 10 8 6 7 6 3 4 5 7 8 9 10 10 10 9 9
10 10 9 7 4 5 11 17 17 11 13 18 12 6 8 8 6 5 7 10 10 11 10 6 9 12 6 10 10 6 15 14 -2 -1 4 2 7 8 4 8 12 11 10 7 6 9 11 9 5 3 5 6 5 3 5 7 6 7 7 5 6 9 9 7 2 1 5 9 12 16 15 6 2 6 7 6 9 10 6 5 6 8 10 9 9 10 11 11
11 11 9 7 5 2 5 13 16 12 14 20 18 9 7 9 7 4 5 8 11 14 10 1 5 14 12 12 13 7 10 14 4 2 6 3 3 6 7 6 6 6 6 6 6 8 10 10 7 3 5 8 7 6 8 9 9 7 6 7 9 11 11 7 5 6 7 9 9 9 8 1 -1 7 10 5 5 8 10 11 8 9 12 11 9 9 8 10
10 11 9 7 7 3 3 9 12 12 14 18 19 12 7 9 9 6 5 5 6 12 15 5 1 10 14 13 13 8 6 14 10 -0 3 4 1 5 10 6 3 2 2 5 8 7 6 7 8 6 5 7 9 8 4 6 8 5 5 9 10 11 10 5 4 7 7 7 6 6 6 5 6 9 8 6 6 5 8 9 3 2 8 11 10 9 5 3
8 10 10 8 8 5 3 6 9 13 15 16 16 13 8 8 9 8 7 7 3 4 14 16 7 7 13 12 11 8 5 13 12 -1 3 9 3 4 9 7 5 4 4 8 10 5 3 5 7 7 6 7 10 8 3 5 10 9 7 7 7 9 8 2 2 6 8 9 11 13 11 9 8 8 7 9 10 7 6 5 2 3 8 10 9 8 5 1
8 9 10 9 8 6 4 6 12 16 16 14 15 14 9 7 8 8 7 8 7 2 8 17 13 8 12 10 10 11 7 11 10 -1 4 13 8 4 5 5 9 9 6 8 8 5 5 6 7 7 6 5 6 8 7 6 6 7 6 4 7 10 9 6 6 7 7 7 8 10 11 9 9 12 13 11 8 7 7 6 7 8 8 8 9 9 9 7
8 9 9 8 8 7 4 7 15 18 15 13 14 15 11 7 8 9 8 6 8 6 6 14 14 11 12 10 9 11 8 9 8 0 1 9 9 5 1 2 7 7 4 4 3 2 3 5 6 6 5 4 5 8 8 4 3 5 4 4 7 10 9 8 9 9 9 10 10 9 8 6 5 8 11 9 6 6 7 7 8 7 5 5 7 8 9 9
8 8 8 8 8 6 4 9 17 20 17 13 13 15 13 9 7 8 9 7 6 6 7 11 12 9 10 10 9 10 8 7 8 4 -1 -1 2 3 2 3 6 5 4 3 3 4 3 4 6 6 6 7 7 7 6 4 5 7 6 6 7 6 5 6 7 6 7 12 12 9 6 4 4 7 8 7 5 4 5 6 7 7 7 7 7 7 8 8
8 8 8 8 7 6 6 11 18 20 19 15 13 14 14 12 8 7 9 9 6 4 4 6 10 8 7 8 10 11 9 6 9 13 7 -4 -5 1 3 4 6 6 4 2 5 9 8 4 4 4 4 6 5 5 5 3 4 6 7 8 6 3 -0 0 2 3 5 7 7 10 15 12 9 10 10 8 6 5 4 6 6 7 8 9 10 10 9 9
8 8 8 8 7 6 6 11 18 20 19 15 13 13 13 13 10 7 8 10 9 7 5 5 9 9 8 7 8 10 12 8 8 16 16 4 -2 4 6 6 7 7 6 3 4 7 7 6 6 5 4 5 5 4 3 2 2 3 4 6 5 2 -0 1 3 4 6 6 5 11 16 12 8 9 9 9 8 6 5 7 7 7 7 7 8 9 8 8
8 7 8 7 7 6 7 12 17 20 19 16 11 11 12 12 12 10 8 8 8 9 10 10 8 8 9 8 7 8 12 13 9 12 14 7 1 4 5 5 7 8 7 7 5 4 4 4 4 4 4 5 5 5 5 5 6 6 7 8 6 4 4 6 8 7 8 8 7 6 2 -1 4 8 8 9 9 7 8 9 9 10 8 6 7 7 6 6
8 7 7 7 6 7 9 13 16 19 20 17 12 9 10 11 12 12 11 10 8 7 9 10 8 7 8 9 9 8 9 12 12 12 12 8 2 2 2 3 5 6 8 10 9 6 6 5 3 4 5 5 5 5 5 5 5 7 10 10 8 7 7 8 8 9 9 8 7 6 2 -0 3 6 6 7 7 6 7 8 8 9 8 6 7 6 5 5
8 7 7 6 6 8 11 13 16 19 19 18 15 11 9 10 11 12 13 12 10 8 6 5 6 7 7 7 9 10 8 8 9 10 13 13 10 7 6 6 7 9 12 15 12 7 5 6 5 4 5 6 6 6 6 5 5 5 7 7 7 7 7 7 8 9 9 9 8 9 8 5 3 4 4 5 6 6 7 9 11 11 9 8 7 5 5 6
Height
5787 5784 5781 5779 5777 5774 5772 5769 5765 5761 5758 5754 5751 5747 5743 5739 5734 5730 5725 5721 5716 5712 5707 5703 5698 5694 5690 5686 5682 5678 5674 5671 5667 5665 5663 5661 5659 5658 5657 5656 5657 5657 5658 5659 5661 5664 5667 5669 5672 5676 5681 5687 5693 5698 5704 5709 5714 5720 5728 5735 5743 5752 5759 5765 5770 5774 5778 5782 5786 5789 5793 5797 5800 5803 5807 5809 5811 5813 5814 5815 5816 5818 5820 5820 5821 5822 5823 5824
5784 5782 5779 5777 5775 5772 5770 5767 5763 5760 5756 5752 5749 5745 5740 5736 5732 5727 5723 5718 5714 5710 5705 5701 5696 5692 5688 5684 5680 5676 5672 5668 5665 5662 5660 5658 5656 5654 5653 5653 5652 5653 5653 5655 5657 5659 5662 5665 5668 5672 5678 5683 5688 5695 5701 5705 5711 5719 5727 5735 5743 5752 5758 5763 5768 5772 5775 5780 5783 5787 5792 5795 5798 5801 5804 5807 5809 5810 5812 5813 5815 5817 5817 5818 5819 5820 5821 5822
5782 5780 5778 5776 5773 5771 5768 5765 5761 5758 5754 5751 5747 5743 5739 5734 5730 5725 5721 5717 5713 5708 5703 5699 5695 5691 5687 5683 5679 5675 5670 5666 5663 5660 5657 5655 5653 5651 5650 5650 5649 5649 5649 5651 5653 5656 5658 5661 5665 5670 5675 5680 5685 5692 5697 5702 5710 5719 5727 5735 5743 5751 5756 5761 5765 5769 5773 5777 5780 5784 5788 5791 5795 5798 5801 5804 5806 5808 5810 5811 5813 5815 5815 5816 5817 5819 5819 5820
5781 5779 5777 5774 5772 5769 5766 5763 5760 5757 5753 5749 5745 5741 5737 5733 5728 5724 5719 5715 5711 5707 5702 5698 5694 5690 5686 5682 5678 5674 5669 5665 5662 5659 5656 5653 5651 5649 5648 5647 5646 5646 5647 5649 5651 5653 5656 5659 5663 5668 5673 5677 5683 5690 5696 5702 5710 5718 5727 5735 5742 5748 5753 5758 5763 5767 5772 5776 5778 5782 5785 5787 5791 5795 5799 5802 5805 5806 5808 5810 5812 5813 5814 5814 5816 5817 5818 5819
5779 5778 5775 5773 5770 5768 5765 5761 5758 5755 5752 5748 5744 5740 5736 5732 5727 5723 5719 5715 5710 5706 5702 5698 5694 5690 5686 5682 5677 5673 5669 5666 5662 5658 5655 5652 5649 5648 5647 5646 5645 5645 5646 5648 5649 5652 5655 5658 5662 5667 5671 5676 5682 5689 5696 5703 5711 5718 5727 5735 5740 5746 5751 5755 5761 5766 5771 5774 5777 5782 5786 5788 5789 5793 5798 5800 5803 5804 5807 5809 5811 5812 5812 5813 5814 5815 5816 5817
5778 5776 5774 5771 5769 5766 5763 5760 5757 5754 5751 5747 5743 5739 5735 5731 5726 5722 5718 5714 5710 5705 5701 5697 5693 5689 5685 5681 5677 5673 5670 5666 5662 5658 5655 5651 5649 5647 5646 5646 5646 5646 5646 5647 5649 5652 5655 5658 5662 5667 5671 5677 5683 5690 5697 5704 5711 5719 5726 5732 5738 5744 5749 5754 5760 5766 5770 5773 5777 5782 5786 5789 5790 5793 5796 5798 5801 5803 5806 5808 5808 5809 5810 5812 5813 5814 5815 5815
5777 5775 5773 5770 5768 5765 5762 5759 5756 5753 5750 5746 5742 5738 5734 5730 5726 5722 5717 5713 5709 5705 5701 5697 5693 5689 5686 5682 5678 5675 5670 5666 5663 5659 5655 5652 5649 5647 5647 5647 5647 5646 5646 5647 5649 5652 5656 5659 5663 5668 5673 5679 5685 5692 5699 5706 5712 5719 5725 5731 5737 5744 5749 5755 5761 5766 5770 5773 5777 5781 5785 5787 5790 5792 5795 5797 5799 5802 5804 5805 5806 5808 5810 5811 5811 5812 5813 5814
5775 5774 5772 5769 5767 5764 5761 5758 5756 5752 5749 5745 5742 5738 5734 5730 5726 5722 5717 5713 5709 5705 5701 5697 5693 5690 5686 5682 5679 5676 5672 5667 5664 5661 5657 5654 5651 5649 5648 5648 5648 5647 5647 5648 5650 5653 5656 5661 5665 5670 5676 5682 5687 5694 5700 5706 5712 5718 5725 5731 5738 5743 5748 5754 5759 5764 5768 5772 5776 5780 5783 5785 5788 5791 5793 5796 5798 5801 5802 5804 5805 5807 5808 5809 5810 5811 5812 5813
5774 5772 5770 5768 5766 5763 5760 5758 5755 5752 5749 5745 5741 5737 5734 5730 5726 5722 5718 5713 5709 5705 5701 5698 5695 5691 5687 5683 5680 5678 5674 5670 5667 5663 5659 5657 5654 5652 5650 5649 5650 5649 5650 5651 5652 5655 5658 5662 5667 5672 5678 5684 5690 5696 5701 5707 5713 5719 5725 5732 5737 5742 5748 5753 5758 5762 5765 5769 5773 5777 5780 5783 5786 5789 5792 5795 5798 5800 5801 5803 5804 5806 5807 5808 5809 5810 5811 5811
5773 5771 5769 5767 5765 5762 5760 5757 5754 5751 5748 5745 5741 5737 5734 5730 5726 5722 5718 5714 5710 5706 5702 5699 5696 5692 5687 5684 5683 5680 5677 5673 5668 5664 5661 5659 5657 5655 5653 5653 5652 5652 5653 5653 5655 5658 5661 5664 5668 5672 5677 5684 5690 5697 5703 5709 5714 5720 5726 5731 5737 5742 5748 5754 5758 5760 5763 5766 5771 5775 5778 5781 5784 5788 5791 5793 5796 5798 5800 5802 5803 5804 5806 5807 5808 5809 5809 5810
5772 5770 5768 5766 5764 5762 5759 5757 5754 5751 5748 5744 5741 5738 5734 5730 5727 5723 5719 5715 5711 5707 5704 5701 5697 5693 5689 5687 5685 5682 5679 5674 5670 5667 5665 5663 5661 5659 5658 5656 5656 5656 5656 5656 5658 5661 5663 5666 5670 5672 5677 5685 5692 5699 5704 5710 5715 5721 5726 5732 5738 5742 5748 5753 5756 5758 5762 5766 5769 5772 5774 5777 5781 5785 5788 5790 5793 5796 5798 5800 5802 5803 5805 5806 5806 5807 5808 5808
5771 5769 5767 5765 5763 5761 5759 5756 5753 5750 5748 5744 5741 5738 5735 5731 5727 5724 5720 5716 5712 5708 5705 5702 5699 5694 5691 5689 5687 5684 5681 5677 5675 5673 5671 5668 5665 5663 5662 5660 5660 5660 5659 5660 5663 5665 5667 5671 5674 5677 5683 5689 5696 5702 5707 5712 5718 5723 5728 5734 5738 5743 5748 5752 5754 5757 5762 5765 5767 5769 5770 5774 5780 5786 5789 5790 5791 5794 5797 5798 5800 5802 5803 5804 5805 5805 5806 5807
5770 5768 5766 5765 5763 5760 5758 5756 5753 5750 5747 5744 5741 5738 5735 5732 5728 5725 5721 5717 5713 5710 5707 5704 5700 5696 5693 5691 5689 5687 5685 5681 5678 5677 5675 5673 5671 5669 5667 5666 5665 5665 5665 5666 5669 5671 5674 5677 5680 5682 5687 5693 5699 5704 5709 5714 5720 5724 5729 5735 5739 5743 5748 5750 5753 5756 5759 5762 5764 5768 5773 5777 5782 5786 5790 5791 5791 5793 5796 5797 5799 5800 5801 5802 5803 5804 5804 5805
5769 5767 5765 5764 5762 5760 5758 5756 5753 5750 5747 5745 5742 5739 5736 5733 5729 5726 5722 5718 5715 5711 5709 5706 5702 5699 5695 5693 5691 5689 5688 5685 5682 5680 5679 5678 5676 5675 5674 5673 5672 5671 5672 5673 5675 5677 5679 5682 5684 5686 5689 5694 5700 5706 5711 5716 5721 5726 5730 5734 5738 5741 5744 5747 5750 5753 5756 5761 5766 5771 5776 5780 5783 5786 5789 5791 5792 5793 5794 5796 5797 5798 5800 5801 5802 5802 5803 5804
5768 5766 5765 5763 5762 5759 5757 5755 5753 5750 5748 5745 5742 5739 5737 5734 5730 5727 5723 5720 5716 5713 5710 5707 5704 5701 5698 5695 5693 5691 5690 5689 5686 5684 5682 5681 5680 5680 5679 5679 5678 5678 5679 5680 5681 5683 5684 5685 5688 5690 5693 5698 5703 5709 5714 5718 5722 5725 5729 5733 5736 5739 5743 5746 5749 5754 5759 5764 5768 5773 5777 5779 5781 5785 5788 5790 5791 5791 5792 5794 5795 5797 5798 5800 5800 5801 5801 5802
5768 5765 5764 5763 5761 5759 5757 5755 5753 5750 5748 5745 5742 5740 5738 5735 5732 5728 5724 5722 5718 5715 5712 5709 5706 5704 5701 5699 5696 5694 5693 5692 5690 5688 5686 5685 5684 5684 5684 5684 5684 5684 5685 5686 5687 5688 5689 5690 5692 5695 5699 5703 5708 5713 5718 5721 5723 5725 5729 5733 5737 5742 5746 5748 5751 5758 5764 5766 5769 5772 5775 5776 5778 5782 5785 5787 5789 5789 5791 5792 5794 5796 5797 5799 5799 5800 5800 5800
5767 5764 5763 5762 5761 5759 5757 5754 5752 5750 5748 5746 5743 5740 5738 5736 5733 5729 5726 5723 5720 5717 5714 5711 5708 5706 5703 5702 5699 5697 5695 5694 5694 5693 5691 5690 5689 5689 5689 5689 5689 5689 5690 5691 5691 5692 5693 5695 5698 5700 5704 5708 5712 5717 5721 5722 5723 5727 5731 5735 5740 5745 5749 5751 5755 5761 5765 5767 5769 5771 5774 5777 5778 5780 5783 5785 5787 5788 5790 5792 5793 5795 5796 5797 5798 5798 5799 5799
5767 5764 5762 5761 5760 5759 5757 5754 5752 5750 5748 5746 5743 5741 5739 5737 5734 5731 5727 5725 5722 5719 5716 5713 5711 5708 5706 5705 5703 5700 5698 5697 5697 5697 5695 5694 5694 5693 5694 5693 5693 5694 5695 5696 5696 5697 5698 5699 5702 5705 5708 5711 5715 5718 5721 5723 5726 5730 5735 5738 5743 5748 5750 5752 5757 5762 5765 5767 5769 5771 5774 5778 5779 5780 5782 5784 5786 5788 5790 5791 5792 5794 5795 5795 5796 5797 5797 5797
5766 5763 5761 5760 5759 5758 5756 5754 5753 5751 5748 5746 5744 5741 5739 5737 5735 5732 5729 5727 5724 5721 5718 5716 5714 5711 5709 5707 5706 5704 5702 5700 5700 5700 5699 5699 5698 5697 5697 5697 5698 5698 5699 5700 5700 5700 5701 5703 5706 5709 5712 5714 5717 5718 5721 5726 5731 5734 5738 5742 5746 5749 5749 5752 5757 5761 5764 5766 5768 5771 5773 5776 5778 5779 5780 5783 5785 5787 5789 5790 5791 5792 5793 5794 5795 5795 5795 5795
5766 5763 5761 5759 5759 5758 5756 5754 5753 5751 5749 5747 5744 5742 5739 5737 5735 5733 5731 5728 5726 5724 5720 5718 5716 5714 5712 5710 5708 5707 5706 5704 5703 5703 5702 5702 5701 5701 5700 5701 5701 5702 5703 5703 5703 5703 5704 5707 5710 5713 5716 5719 5721 5722 5724 5729 5733 5737 5742 5745 5747 5749 5750 5754 5758 5762 5764 5766 5768 5770 5773 5775 5777 5777 5779 5781 5784 5786 5787 5789 5790 5791 5791 5792 5792 5793 5793 5793
5765 5762 5760 5759 5758 5757 5756 5754 5753 5751 5750 5748 5745 5743 5741 5739 5737 5735 5733 5730 5728 5725 5722 5720 5718 5716 5715 5713 5711 5710 5709 5707 5706 5705 5705 5705 5705 5704 5704 5704 5705 5705 5706 5706 5706 5706 5708 5711 5714 5717 5720 5723 5724 5726 5728 5733 5737 5742 5746 5748 5749 5751 5753 5756 5760 5763 5765 5767 5769 5771 5773 5774 5776 5777 5779 5781 5783 5784 5786 5787 5788 5789 5790 5790 5790 5791 5792 5792
5765 5762 5760 5758 5757 5757 5756 5754 5753 5751 5750 5748 5746 5744 5742 5740 5738 5736 5734 5732 5729 5727 5724 5722 5721 5719 5717 5716 5714 5713 5712 5711 5709 5708 5708 5707 5707 5707 5706 5707 5707 5708 5708 5709 5709 5710 5711 5714 5717 5720 5722 5725 5728 5730 5733 5737 5740 5744 5747 5749 5750 5752 5754 5757 5760 5763 5765 5766 5769 5771 5771 5773 5774 5777 5778 5780 5781 5783 5784 5786 5787 5787 5787 5787 5788 5790 5790 5790
5764 5762 5759 5758 5757 5756 5755 5754 5753 5751 5750 5749 5747 5745 5743 5741 5738 5736 5735 5733 5731 5729 5727 5725 5723 5721 5720 5718 5717 5716 5714 5713 5712 5711 5710 5709 5710 5710 5709 5709 5710 5710 5711 5711 5712 5713 5714 5717 5720 5722 5725 5727 5730 5733 5736 5739 5742 5745 5747 5749 5750 5752 5754 5757 5759 5762 5764 5766 5767 5769 5770 5771 5773 5775 5777 5778 5779 5781 5783 5784 5785 5785 5785 5786 5787 5788 5788 5788
5764 5761 5759 5757 5756 5756 5755 5753 5752 5751 5750 5749 5748 5746 5744 5742 5739 5737 5736 5734 5732 5731 5729 5727 5725 5724 5722 5721 5719 5718 5717 5716 5715 5714 5713 5712 5711 5711 5711 5711 5712 5713 5713 5714 5715 5716 5718 5720 5723 5725 5727 5729 5732 5735 5738 5740 5742 5744 5747 5749 5750 5752 5754 5757 5759 5761 5763 5765 5766 5768 5770 5771 5772 5774 5775 5776 5778 5780 5781 5782 5782 5783 5783 5784 5785 5785 5785 5786
5763 5761 5759 5757 5756 5755 5754 5753 5752 5751 5750 5749 5748 5746 5744 5743 5740 5738 5737 5735 5734 5732 5731 5730 5728 5727 5725 5723 5722 5720 5719 5718 5718 5717 5716 5715 5714 5714 5713 5713 5714 5715 5716 5717 5718 5719 5721 5723 5725 5728 5729 5731 5733 5736 5739 5741 5743 5744 5747 5748 5750 5752 5754 5756 5758 5760 5762 5764 5766 5768 5769 5771 5772 5773 5774 5775 5776 5778 5779 5780 5780 5781 5782 5782 5783 5783 5783 5784
5763 5761 5759 5757 5755 5755 5754 5753 5752 5751 5750 5749 5748 5747 5745 5743 5741 5739 5738 5736 5735 5734 5734 5732 5731 5729 5727 5726 5725 5723 5722 5721 5720 5720 5719 5718 5718 5717 5716 5716 5717 5717 5718 5719 5720 5722 5723 5726 5728 5730 5732 5733 5735 5737 5740 5742 5744 5746 5748 5749 5750 5752 5754 5756 5758 5759 5761 5764 5766 5767 5769 5771 5771 5771 5772 5773 5775 5776 5777 5778 5779 5779 5780 5780 5781 5781 5782 5783
5762 5760 5758 5756 5755 5754 5753 5752 5752 5751 5750 5749 5748 5747 5745 5744 5742 5741 5739 5738 5737 5736 5735 5734 5733 5731 5730 5728 5727 5726 5724 5724 5723 5722 5721 5721 5721 5721 5721 5720 5720 5720 5721 5722 5723 5724 5725 5727 5729 5731 5733 5734 5736 5739 5741 5743 5745 5746 5748 5749 5750 5752 5754 5755 5756 5758 5761 5763 5765 5766 5768 5769 5769 5769 5770 5772 5774 5775 5776 5777 5777 5778 5778 5779 5780 5780 5780 5781
5761 5760 5758 5756 5754 5753 5753 5752 5751 5751 5750 5749 5748 5747 5746 5744 5743 5742 5741 5740 5739 5738 5737 5736 5735 5734 5732 5730 5729 5728 5727 5726 5725 5724 5724 5724 5724 5724 5724 5724 5724 5724 5725 5725 5726 5727 5728 5729 5731 5732 5734 5735 5737 5740 5741 5743 5745 5746 5748 5749 5750 5752 5753 5754 5755 5757 5760 5762 5764 5765 5766 5767 5767 5768 5770 5771 5773 5774 5775 5776 5776 5777 5778 5778 5778 5778 5778 5779
5760 5759 5757 5755 5754 5753 5752 5751 5751 5750 5749 5749 5749 5747 5746 5744 5743 5743 5742 5741 5740 5739 5738 5738 5737 5736 5734 5732 5731 5730 5729 5729 5728 5728 5727 5727 5727 5726 5726 5726 5727 5727 5728 5728 5729 5730 5730 5732 5733 5734 5736 5737 5739 5741 5742 5744 5745 5746 5747 5749 5750 5752 5752 5752 5754 5756 5758 5761 5762 5764 5765 5766 5766 5768 5769 5771 5772 5773 5774 5774 5775 5776 5776 5776 5776 5776 5777 5777
5759 5758 5757 5755 5753 5752 5751 5750 5750 5750 5749 5749 5749 5748 5747 5745 5744 5743 5743 5742 5741 5740 5739 5739 5739 5738 5736 5734 5732 5731 5731 5731 5731 5730 5730 5730 5730 5729 5729 5729 5729 5730 5730 5731 5732 5732 5733 5734 5735 5736 5738 5739 5741 5743 5743 5744 5745 5746 5747 5749 5751 5751 5751 5751 5753 5755 5758 5760 5762 5763 5765 5766 5767 5768 5769 5770 5771 5772 5773 5773 5774 5774 5774 5775 5775 5775 5775 5776
5758 5757 5756 5754 5752 5751 5751 5750 5749 5749 5749 5749 5749 5748 5747 5746 5744 5744 5744 5743 5742 5741 5741 5740 5740 5740 5738 5735 5734 5733 5733 5733 5733 5732 5732 5732 5732 5733 5733 5733 5733 5733 5733 5734 5734 5734 5735 5737 5738 5738 5739 5741 5742 5744 5744 5745 5746 5747 5747 5749 5750 5751 5750 5751 5753 5755 5758 5760 5762 5763 5764 5766 5767 5768 5769 5770 5771 5771 5772 5773 5773 5773 5773 5773 5773 5774 5774 5775
5757 5756 5755 5753 5752 5750 5750 5749 5748 5748 5748 5748 5748 5748 5748 5746 5745 5745 5745 5744 5743 5742 5742 5741 5741 5741 5740 5738 5737 5736 5736 5735 5734 5734 5734 5734 5734 5735 5735 5735 5736 5735 5735 5736 5736 5737 5738 5739 5740 5740 5741 5742 5744 5745 5745 5746 5747 5748 5748 5749 5750 5750 5750 5752 5754 5756 5758 5760 5762 5763 5764 5765 5766 5767 5768 5769 5770 5771 5771 5772 5772 5772 5771 5772 5772 5772 5773 5773
5756 5755 5754 5752 5751 5749 5749 5748 5748 5748 5748 5748 5748 5748 5748 5747 5746 5745 5745 5745 5744 5743 5743 5743 5743 5742 5742 5741 5740 5739 5738 5737 5737 5736 5736 5736 5736 5736 5736 5737 5738 5738 5738 5738 5739 5739 5740 5741 5742 5743 5744 5744 5745 5746 5746 5747 5748 5749 5750 5751 5751 5751 5751 5753 5755 5757 5759 5761 5762 5763 5764 5765 5766 5766 5767 5768 5769 5770 5770 5770 5770 5770 5771 5771 5771 5771 5771 5772
5755 5754 5753 5751 5750 5749 5748 5747 5747 5747 5747 5747 5747 5748 5748 5747 5746 5745 5745 5745 5745 5744 5744 5744 5743 5743 5742 5742 5742 5741 5741 5741 5740 5739 5739 5738 5738 5738 5738 5739 5739 5739 5740 5740 5741 5741 5742 5743 5744 5745 5745 5746 5747 5747 5748 5749 5749 5750 5752 5753 5752 5752 5753 5755 5757 5758 5760 5761 5762 5763 5764 5765 5765 5766 5767 5768 5768 5769 5770 5770 5770 5770 5770 5770 5770 5770 5771 5771
5755 5753 5752 5750 5749 5748 5747 5747 5746 5746 5747 5747 5747 5747 5747 5747 5746 5745 5745 5745 5745 5745 5744 5745 5744 5743 5743 5744 5743 5743 5742 5743 5742 5741 5741 5741 5740 5740 5740 5741 5741 5742 5742 5742 5742 5743 5744 5745 5746 5747 5747 5747 5748 5749 5750 5750 5750 5751 5753 5754 5754 5754 5755 5756 5758 5759 5761 5762 5762 5763 5764 5765 5766 5766 5767 5768 5769 5769 5769 5769 5770 5770 5770 5770 5770 5771 5771 5771
5754 5752 5751 5750 5749 5747 5747 5746 5745 5745 5746 5746 5746 5747 5747 5746 5746 5745 5745 5744 5745 5745 5745 5745 5745 5745 5745 5745 5745 5744 5743 5744 5744 5744 5743 5743 5742 5742 5742 5742 5743 5744 5744 5743 5744 5745 5746 5747 5747 5748 5748 5748 5749 5751 5751 5751 5752 5753 5754 5755 5755 5755 5756 5758 5759 5761 5761 5762 5763 5764 5765 5766 5767 5767 5768 5768 5769 5769 5770 5770 5770 5770 5770 5770 5770 5770 5770 5771
5753 5751 5750 5749 5748 5747 5746 5745 5744 5744 5745 5745 5745 5746 5746 5746 5746 5745 5745 5745 5745 5745 5746 5746 5746 5746 5745 5745 5746 5745 5745 5745 5745 5746 5745 5745 5745 5745 5745 5745 5745 5745 5746 5745 5746 5747 5747 5748 5749 5749 5750 5750 5751 5752 5753 5753 5753 5754 5754 5756 5756 5756 5757 5759 5760 5762 5762 5763 5764 5765 5766 5767 5768 5768 5768 5768 5769 5769 5769 5770 5770 5770 5770 5770 5770 5770 5770 5771
5752 5750 5749 5748 5747 5746 5745 5745 5744 5743 5744 5744 5745 5745 5746 5746 5746 5745 5745 5745 5745 5745 5746 5746 5746 5746 5746 5746 5746 5746 5745 5746 5747 5747 5747 5747 5747 5747 5747 5747 5747 5747 5748 5747 5748 5748 5748 5749 5750 5751 5752 5752 5753 5753 5754 5755 5756 5755 5756 5757 5757 5757 5758 5760 5761 5763 5764 5765 5765 5766 5767 5768 5768 5769 5769 5769 5769 5769 5769 5770 5770 5770 5770 5770 5771 5771 5771 5771
5750 5749 5748 5747 5746 5745 5744 5744 5743 5742 5743 5744 5744 5745 5745 5745 5745 5745 5745 5744 5745 5745 5746 5746 5746 5746 5746 5746 5746 5746 5746 5747 5748 5749 5749 5749 5749 5749 5749 5749 5749 5749 5750 5750 5750 5750 5750 5750 5752 5753 5754 5754 5754 5755 5756 5756 5757 5757 5758 5758 5758 5759 5760 5761 5762 5764 5765 5766 5767 5767 5768 5769 5769 5769 5769 5769 5769 5770 5770 5770 5770 5771 5771 5771 5771 5771 5771 5770
5749 5748 5747 5746 5745 5744 5744 5743 5742 5741 5742 5743 5744 5744 5745 5745 5745 5745 5744 5744 5744 5744 5745 5745 5746 5745 5745 5746 5746 5746 5746 5747 5749 5750 5750 5750 5751 5751 5751 5751 5751 5751 5751 5752 5752 5752 5752 5752 5752 5753 5754 5754 5754 5755 5756 5757 5757 5758 5759 5759 5760 5761 5761 5762 5763 5765 5766 5767 5768 5768 5769 5769 5769 5770 5770 5770 5770 5770 5770 5771 5771 5772 5772 5771 5771 5770 5770 5770
5747 5747 5746 5745 5744 5744 5743 5742 5741 5741 5741 5742 5743 5743 5744 5744 5744 5744 5744 5744 5744 5744 5744 5745 5745 5745 5745 5745 5746 5746 5747 5747 5749 5751 5751 5751 5752 5752 5752 5752 5752 5752 5752 5753 5753 5753 5753 5753 5753 5753 5754 5754 5754 5756 5757 5758 5758 5758 5759 5760 5761 5762 5763 5763 5764 5765 5766 5767 5768 5768 5769 5769 5770 5770 5770 5770 5771 5771 5771 5772 5772 5773 5772 5771 5770 5770 5769 5769
5746 5745 5744 5744 5743 5743 5742 5741 5741 5740 5740 5741 5741 5742 5742 5743 5743 5744 5744 5744 5744 5744 5744 5744 5744 5744 5745 5745 5745 5746 5746 5747 5749 5751 5751 5751 5752 5752 5753 5753 5753 5753 5753 5753 5753 5754 5754 5754 5754 5755 5755 5755 5756 5757 5758 5759 5759 5759 5760 5761 5762 5762 5763 5764 5764 5765 5766 5767 5768 5768 5769 5769 5769 5770 5770 5770 5771 5771 5771 5772 5772 5772 5772 5771 5770 5769 5769 5768
5744 5743 5742 5742 5742 5741 5741 5740 5740 5739 5739 5739 5740 5740 5741 5742 5742 5743 5743 5743 5743 5743 5743 5742 5743 5743 5744 5744 5744 5745 5746 5747 5748 5750 5751 5751 5751 5752 5753 5753 5753 5753 5753 5753 5754 5754 5754 5755 5755 5756 5756 5757 5757 5758 5759 5759 5760 5760 5761 5762 5762 5763 5763 5764 5764 5765 5765 5767 5768 5768 5769 5769 5769 5769 5770 5770 5771 5771 5771 5771 5771 5771 5771 5770 5770 5769 5769 5768
5741 5741 5740 5740 5740 5740 5739 5739 5738 5738 5738 5738 5738 5738 5740 5740 5741 5741 5742 5742 5742 5742 5742 5742 5742 5742 5743 5744 5744 5744 5745 5746 5747 5749 5750 5751 5751 5751 5752 5752 5753 5753 5754 5754 5754 5754 5755 5755 5756 5757 5757 5758 5758 5759 5759 5760 5760 5761 5761 5762 5763 5763 5763 5764 5764 5765 5766 5767 5767 5768 5768 5769 5769 5769 5769 5770 5770 5770 5770 5770 5770 5770 5770 5770 5770 5770 5769 5769
5739 5739 5738 5738 5738 5738 5737 5737 5737 5736 5736 5736 5736 5736 5737 5738 5739 5740 5740 5741 5741 5741 5741 5741 5741 5742 5742 5743 5744 5744 5744 5745 5747 5748 5749 5750 5750 5751 5751 5752 5752 5753 5754 5754 5755 5755 5755 5756 5757 5758 5758 5759 5759 5759 5760 5760 5761 5761 5762 5762 5763 5763 5764 5764 5764 5765 5766 5767 5767 5767 5768 5768 5768 5768 5769 5769 5769 5769 5769 5769 5769 5769 5769 5769 5769 5769 5769 5768
5736 5736 5736 5735 5735 5736 5735 5735 5734 5734 5734 5734 5734 5734 5735 5736 5738 5738 5739 5739 5739 5740 5740 5740 5741 5741 5742 5742 5743 5744 5744 5745 5746 5747 5748 5749 5749 5750 5750 5751 5752 5752 5753 5754 5754 5755 5755 5756 5756 5757 5758 5758 5759 5759 5760 5760 5761 5761 5761 5762 5762 5763 5764 5764 5765 5765 5766 5767 5767 5767 5767 5768 5768 5768 5768 5768 5769 5769 5769 5768 5768 5768 5768 5768 5768 5768 5767 5767
5733 5733 5733 5733 5733 5733 5733 5733 5732 5731 5731 5731 5731 5732 5733 5734 5735 5736 5737 5737 5738 5738 5739 5739 5740 5740 5741 5741 5742 5743 5743 5744 5745 5746 5747 5748 5749 5749 5749 5750 5751 5751 5752 5753 5754 5754 5755 5755 5756 5757 5757 5758 5758 5759 5759 5760 5760 5760 5761 5761 5762 5762 5763 5764 5765 5765 5766 5766 5767 5767 5767 5768 5768 5767 5768 5768 5768 5768 5768 5768 5768 5767 5766 5766 5766 5766 5766 5766
5731 5730 5731 5731 5730 5730 5731 5730 5729 5729 5729 5729 5729 5730 5730 5731 5733 5734 5735 5736 5736 5737 5737 5738 5738 5739 5740 5741 5741 5742 5742 5743 5744 5745 5746 5747 5748 5748 5749 5749 5750 5751 5751 5752 5753 5753 5754 5755 5756 5756 5757 5757 5758 5758 5759 5759 5760 5760 5761 5761 5761 5762 5763 5763 5764 5764 5765 5766 5766 5767 5767 5767 5767 5767 5767 5767 5767 5767 5767 5767 5767 5766 5766 5765 5765 5765 5765 5764
5728 5728 5728 5728 5728 5728 5728 5727 5726 5726 5726 5726 5727 5727 5728 5729 5730 5732 5733 5734 5735 5735 5736 5736 5737 5737 5738 5739 5740 5740 5741 5742 5743 5744 5745 5746 5747 5748 5748 5749 5750 5750 5751 5751 5751 5752 5753 5754 5755 5756 5756 5757 5757 5758 5758 5759 5759 5760 5760 5761 5761 5762 5762 5763 5763 5763 5764 5764 5765 5765 5766 5766 5767 5767 5767 5767 5766 5766 5766 5766 5765 5765 5765 5765 5764 5764 5763 5763
5725 5725 5725 5725 5725 5725 5725 5724 5724 5724 5724 5724 5724 5725 5725 5726 5727 5729 5730 5731 5732 5733 5734 5734 5735 5735 5736 5737 5738 5739 5740 5741 5742 5743 5744 5744 5746 5747 5748 5748 5749 5749 5749 5750 5750 5751 5752 5753 5754 5755 5755 5756 5757 5757 5757 5758 5758 5759 5760 5760 5760 5761 5761 5762 5762 5762 5763 5763 5763 5764 5764 5765 5766 5766 5766 5766 5766 5766 5765 5765 5764 5764 5764 5763 5763 5763 5762 5762
5722 5722 5722 5723 5723 5722 5722 5721 5721 5721 5721 5721 5722 5722 5723 5724 5724 5726 5728 5729 5730 5731 5732 5732 5733 5733 5734 5736 5737 5738 5739 5740 5741 5742 5743 5744 5745 5746 5747 5747 5747 5748 5748 5749 5749 5750 5751 5752 5753 5754 5754 5755 5755 5756 5756 5757 5757 5758 5758 5759 5759 5759 5760 5760 5761 5761 5761 5761 5762 5762 5763 5763 5764 5764 5765 5765 5764 5764 5764 5763 5763 5763 5763 5762 5762 5762 5761 5760
5719 5719 5719 5720 5720 5719 5719 5718 5718 5718 5718 5719 5719 5719 5720 5721 5721 5723 5725 5726 5728 5728 5729 5730 5730 5731 5733 5734 5735 5736 5737 5738 5739 5740 5742 5743 5744 5745 5745 5745 5746 5746 5747 5747 5748 5748 5749 5751 5751 5752 5753 5753 5754 5754 5754 5755 5756 5757 5757 5758 5758 5758 5758 5758 5759 5759 5759 5760 5760 5760 5761 5761 5762 5762 5763 5763 5762 5762 5762 5761 5761 5761 5761 5761 5760 5760 5759 5759